Darwin, Australia

1:59 AM ACST on March 27, 2017 (GMT +0930)
Darwin

Weather History for 94120 - September, 2013

Change the Weather History Date:

Friday, September 13, 2013

  Actual Average Record
Temperature  
Mean Temperature 82 °F -  
Max Temperature 93 °F 91 °F - ()
Min Temperature 72 °F 75 °F - ()
Cooling Degree Days 18    
Growing Degree Days 32 (Base 50)    
Moisture  
Dew Point 69 °F    
Average Humidity 65    
Maximum Humidity 94    
Minimum Humidity 25    
Precipitation  
Precipitation 0.00 in 0.06 in - ()
Sea Level Pressure  
Sea Level Pressure 29.88 in    
Wind  
Wind Speed 7 mph ()    
Max Wind Speed 17 mph    
Max Gust Speed -    
Visibility 8.6 miles    
Events Fog    
T = Trace of Precipitation, MM = Missing Value Source: Averaged Metar Reports

Daily Weather History Graph

Daily Weather History Graph

Search for Another Location

Airport or City:

Trip Planner

Search our weather history database for the weather conditions in past years. The results will help you decide how hot, cold, wet, or windy it might be!

Date:

Astronomy

Sep. 13, 2013 Rise Set
Actual Time 6:42 AM ACST 6:42 PM ACST
Civil Twilight 6:21 AM ACST 7:03 PM ACST
Nautical Twilight 5:56 AM ACST 7:28 PM ACST
Astronomical Twilight 5:32 AM ACST 7:52 PM ACST
Moon 12:43 PM ACST (9/13) 12:50 AM ACST (9/13)
Length of Visible Light 12h 42m
Length of Day
12h 00m
First Quarter, 55% of the Moon is Illuminated
Sep 13
First Quarter
Sep 19
Full
Sep 27
Last Quarter
Oct 5
New
Oct 12
First Quarter

Hourly Weather History & Observations

Time (ACST) Temp. Heat Index Dew Point Humidity Pressure Visibility Wind Dir Wind Speed Gust Speed Precip Events Conditions
12:00 AM 78.8 °F - 73.4 °F 83% 29.92 in 6.2 mi WNW 6.9 mph - N/A   Mostly Cloudy
12:30 AM 79 °F - 73 °F 76% 29.93 in - WNW 6.9 mph - -  
12:30 AM 78.8 °F - 73.4 °F 83% 29.92 in 6.2 mi WNW 6.9 mph - N/A   Mostly Cloudy
1:00 AM 78.8 °F - 73.4 °F 83% 29.92 in 6.2 mi West 6.9 mph - N/A   Mostly Cloudy
1:30 AM 78.8 °F - 73.4 °F 83% 29.92 in - West 6.9 mph - N/A   Clear
2:00 AM 77.0 °F - 73.4 °F 89% 29.89 in - WNW 4.6 mph - N/A   Clear
2:30 AM 77.0 °F - 71.6 °F 83% 29.89 in - WNW 4.6 mph - N/A   Clear
3:00 AM 75.2 °F - 71.6 °F 89% 29.89 in - WNW 4.6 mph - N/A   Clear
3:30 AM 74 °F - 71 °F 89% 29.89 in - WNW 4.6 mph - -  
3:30 AM 75.2 °F - 71.6 °F 89% 29.89 in - WNW 4.6 mph - N/A   Clear
4:00 AM 73.4 °F - 71.6 °F 94% 29.89 in - North 1.2 mph - N/A   Clear
4:30 AM 73.4 °F - 71.6 °F 94% 29.89 in - Calm Calm - N/A   Clear
5:00 AM 73.4 °F - 71.6 °F 94% 29.92 in - Calm Calm - N/A   Clear
5:30 AM 73.4 °F - 71.6 °F 94% 29.92 in - Calm Calm - N/A   Clear
6:00 AM 73 °F - 71 °F 91% 29.92 in 19 mi Calm Calm - -   Partly Cloudy
6:00 AM 73.4 °F - 71.6 °F 94% 29.92 in - Calm Calm - N/A   Clear
6:30 AM 73.4 °F - 71.6 °F 94% 29.92 in 6.2 mi Calm Calm - N/A Fog Shallow Fog
7:00 AM 73.4 °F - 71.6 °F 94% 29.95 in 6.2 mi Calm Calm - N/A Fog Shallow Fog
7:18 AM 73.4 °F - 71.6 °F 94% 29.95 in 6.2 mi Calm Calm - N/A   Mostly Cloudy
7:30 AM 75.2 °F - 71.6 °F 89% 29.95 in 6.2 mi Calm Calm - N/A   Mostly Cloudy
8:00 AM 78.8 °F - 73.4 °F 83% 29.95 in 6.2 mi SSW 3.5 mph - N/A   Mostly Cloudy
8:30 AM 80.6 °F 85.4 °F 73.4 °F 79% 29.95 in 6.2 mi SSW 4.6 mph - N/A   Mostly Cloudy
9:00 AM 82.4 °F 86.3 °F 69.8 °F 66% 29.95 in 6.2 mi East 3.5 mph - N/A   Mostly Cloudy
9:30 AM 85 °F - 67 °F 45% 29.96 in - East 5.8 mph - -  
9:30 AM 86.0 °F 88.2 °F 66.2 °F 51% 29.95 in 6.2 mi East 5.8 mph - N/A   Mostly Cloudy
10:00 AM 86.0 °F 88.2 °F 66.2 °F 51% 29.95 in 6.2 mi NNE 9.2 mph - N/A   Mostly Cloudy
10:30 AM 87.8 °F 90.4 °F 66.2 °F 49% 29.95 in 6.2 mi North 10.4 mph - N/A   Mostly Cloudy
11:00 AM 87.8 °F 90.4 °F 66.2 °F 49% 29.95 in 6.2 mi North 11.5 mph - N/A   Mostly Cloudy
11:30 AM 89.6 °F 93.4 °F 68.0 °F 49% 29.92 in 6.2 mi North 10.4 mph - N/A   Mostly Cloudy
12:00 PM 90 °F - 66 °F 36% 29.91 in 19 mi NNW 10.4 mph - -   Partly Cloudy
12:00 PM 89.6 °F 92.2 °F 66.2 °F 46% 29.89 in 6.2 mi NNW 10.4 mph - N/A   Scattered Clouds
12:30 PM 91.4 °F 95.4 °F 68.0 °F 46% 29.89 in - North 12.7 mph - N/A   Clear
1:00 PM 91.4 °F 94.0 °F 66.2 °F 43% 29.86 in - North 15.0 mph - N/A   Clear
1:30 PM 91.4 °F 94.0 °F 66.2 °F 43% 29.83 in - North 12.7 mph - N/A   Clear
2:00 PM 91.4 °F 93.2 °F 64.4 °F 41% 29.83 in - North 15.0 mph - N/A   Clear
2:30 PM 93.2 °F 94.1 °F 62.6 °F 36% 29.80 in - North 15.0 mph - N/A   Clear
3:00 PM 93 °F - 62 °F 26% 29.80 in 19 mi NNW 13.8 mph - -   Partly Cloudy
3:00 PM 93.2 °F 94.1 °F 62.6 °F 36% 29.80 in - NNW 13.8 mph - N/A   Clear
3:30 PM 92 °F - 61 °F 25% 29.80 in - NNW 15.0 mph - -  
3:30 PM 93.2 °F 93.3 °F 60.8 °F 34% 29.80 in - NNW 15.0 mph - N/A   Clear
4:00 PM 91.4 °F 91.4 °F 60.8 °F 36% 29.80 in - North 17.3 mph - N/A   Clear
4:30 PM 91.4 °F 92.1 °F 62.6 °F 38% 29.80 in - NNE 17.3 mph - N/A   Clear
5:00 PM 89.6 °F 91.1 °F 64.4 °F 43% 29.77 in - North 15.0 mph - N/A   Clear
5:30 PM 89.6 °F 91.1 °F 64.4 °F 43% 29.80 in - North 17.3 mph - N/A   Clear
6:00 PM 88 °F - 65 °F 36% 29.80 in 19 mi NNE 13.8 mph - -   Partly Cloudy
6:00 PM 87.8 °F 89.4 °F 64.4 °F 46% 29.80 in - NNE 13.8 mph - N/A   Clear
6:30 PM 87 °F - 66 °F 40% 29.82 in - NW 16.1 mph - -  
6:30 PM 86.0 °F 88.2 °F 66.2 °F 51% 29.80 in - NW 16.1 mph - N/A   Clear
7:00 PM 82.4 °F 86.3 °F 69.8 °F 66% 29.83 in - NW 12.7 mph - N/A   Clear
7:30 PM 82.4 °F 86.3 °F 69.8 °F 66% 29.83 in - WNW 10.4 mph - N/A   Clear
8:00 PM 82.4 °F 87.2 °F 71.6 °F 70% 29.86 in - WNW 10.4 mph - N/A   Clear
8:30 PM 82.4 °F 87.2 °F 71.6 °F 70% 29.86 in - West 10.4 mph - N/A   Clear
9:00 PM 81 °F - 72 °F 68% 29.88 in 19 mi WNW 10.4 mph - -   Partly Cloudy
9:00 PM 80.6 °F 84.6 °F 71.6 °F 74% 29.86 in 6.2 mi WNW 10.4 mph - N/A   Partly Cloudy
9:30 PM 81 °F - 73 °F 71% 29.89 in - West 10.4 mph - -  
9:30 PM 80.6 °F 85.4 °F 73.4 °F 79% 29.89 in 6.2 mi West 10.4 mph - N/A   Scattered Clouds
10:00 PM 80.6 °F 85.4 °F 73.4 °F 79% 29.89 in 6.2 mi West 9.2 mph - N/A   Partly Cloudy
10:30 PM 80.6 °F 85.4 °F 73.4 °F 79% 29.89 in 6.2 mi WNW 10.4 mph - N/A   Partly Cloudy
11:00 PM 80.6 °F 85.4 °F 73.4 °F 79% 29.89 in 6.2 mi West 10.4 mph - N/A   Partly Cloudy
11:30 PM 80.6 °F 84.6 °F 71.6 °F 74% 29.89 in 6.2 mi West 10.4 mph - N/A   Partly Cloudy